Home > Weather > Guayaquil > Past weeks

Flag for Ecuador Weather for the Past 2 Weeks in Guayaquil, Ecuador

Now
82 °F

Passing clouds.


Feels Like: 89 °F
Forecast: 77 / 87 °F
Wind: 8 mph from Southwest

Location: Guayaquil / Simon Bolivar

Current Time: Feb 5, 2016 at 7:58:06 PM

Latest Report: Feb 5, 2016 at 7:00 PM


Visibility: N/A

Pressure: 29.74 "Hg

Humidity: 79%

Dew point: 75 °F

Location of GuayaquilLocation

Historic Weather in Guayaquil — Graph

°F

Guayaquil Temperature Yesterday

Maximum temperature yesterday: 81 °F (at 2:00 PM)
Minimum temperature yesterday: 73 °F (at 9:00 AM)
Average temperature yesterday: 78 °F

High & Low Weather Summary for the Past Weeks

 TemperatureHumidityPressure
High90 °F (Jan 26, 4:00 PM)94% (Jan 22, 3:00 AM)30.30 "Hg (Jan 22, 3:00 AM)
Low61 °F (Jan 25, 7:00 PM)52% (Feb 5, 4:00 PM)29.71 "Hg (Jan 23, 4:00 PM)
Average81 °F81%29.83 "Hg
* Reported Jan 21 6:00 PM — Feb 5 6:00 PM, Guayaquil, Weather by CustomWeather, © 2016

Note: Actual official high and low records may vary slightly from our data, if they occured in-between our weather recording intervals... More about our weather records

Advertising

Guayaquil Weather History for the Previous 24 Hours

 ConditionsComfort  
Time TempWeatherWind HumidityBarometerVisibility
6:00 PM
Fri, Feb 5
86 °FScattered clouds.12 mph70%29.71 "HgN/A
5:00 PM90 °FPassing clouds.3 mph55%29.71 "HgN/A
4:00 PM90 °FScattered clouds.3 mph52%29.71 "HgN/A
3:00 PM90 °FScattered clouds.5 mph59%29.74 "HgN/A
2:00 PM90 °FScattered clouds.5 mph55%29.80 "HgN/A
1:00 PM88 °FScattered clouds.6 mph62%29.83 "HgN/A
12:00 PM88 °FScattered clouds.9 mph66%29.86 "HgN/A
11:00 AM86 °FScattered clouds.6 mph70%29.86 "HgN/A
10:00 AM86 °FPassing clouds.6 mph70%29.86 "HgN/A
9:00 AM82 °FScattered clouds.6 mph84%29.86 "HgN/A
8:00 AM79 °FPartly sunny.3 mph89%29.86 "HgN/A
7:00 AM77 °FScattered clouds.2 mph89%29.83 "HgN/A
6:00 AM77 °FPassing clouds.3 mph94%29.80 "HgN/A
5:00 AM77 °FPassing clouds.No wind89%29.80 "HgN/A
4:00 AM77 °FClear.No wind89%29.80 "Hg10 mi
3:00 AM77 °FClear.3 mph89%29.80 "Hg10 mi
2:00 AM77 °FClear.No wind89%29.83 "Hg10 mi
1:00 AM79 °FPartly cloudy.2 mph84%29.83 "HgN/A
12:00 AM79 °FPassing clouds.2 mph84%29.86 "HgN/A
11:00 PM
Thu, Feb 4
79 °FClear.3 mph89%29.83 "Hg10 mi
10:00 PM79 °FPassing clouds.2 mph84%29.83 "HgN/A
9:00 PM79 °FPassing clouds.3 mph84%29.83 "HgN/A
8:00 PM79 °FPassing clouds.3 mph84%29.80 "HgN/A
7:00 PM79 °FPartly cloudy.6 mph84%29.80 "HgN/A
Weather by CustomWeather, © 2016

See weather overviewHow to use our weather pages